TAP172 LPPT-LEMD

Flight info

Callsign TAP172
Flight time N/A
Altitude 32000
Route ORVED DCT OGERO DCT ROLDO DCT RUKER Z409 TLD
Aircraft A321/M-SDE3FGHIRWY/LB1

Departure

Time 2026-04-27 13:31
Airport Lisbon Humberto Delgado Airport (LPPT)

Arrival

Time N/A
Airport Adolfo Suárez Madrid–Barajas Airport (LEMD)
Time Latitude Longitude Altitude Speed Heading
2026-04-27 13:19 38.76827 -9.13584 358 ft 0 kts 258°
2026-04-27 13:24 38.76829 -9.13571 360 ft 4 kts 258°
2026-04-27 13:25 38.76835 -9.13536 360 ft 4 kts 257°
2026-04-27 13:25 38.76841 -9.13505 358 ft 3 kts 250°
2026-04-27 13:25 38.76846 -9.13489 362 ft 2 kts 226°
2026-04-27 13:25 38.76855 -9.13481 362 ft 2 kts 173°
2026-04-27 13:26 38.76866 -9.13484 360 ft 2 kts 169°
2026-04-27 13:26 38.76867 -9.13484 359 ft 0 kts 169°
2026-04-27 13:27 38.76827 -9.13474 360 ft 14 kts 169°
2026-04-27 13:28 38.76736 -9.13451 351 ft 20 kts 168°
2026-04-27 13:28 38.76647 -9.13528 354 ft 17 kts 257°
2026-04-27 13:28 38.76626 -9.13673 357 ft 16 kts 258°
2026-04-27 13:28 38.76602 -9.13811 351 ft 15 kts 258°
2026-04-27 13:29 38.76582 -9.13943 358 ft 15 kts 257°
2026-04-27 13:29 38.76532 -9.14051 361 ft 14 kts 230°
2026-04-27 13:29 38.76499 -9.14159 355 ft 13 kts 270°
2026-04-27 13:29 38.76526 -9.14264 354 ft 12 kts 293°
2026-04-27 13:30 38.76560 -9.14363 357 ft 12 kts 293°
2026-04-27 13:30 38.76622 -9.14395 351 ft 10 kts
2026-04-27 13:30 38.76681 -9.14368 358 ft 9 kts 21°
2026-04-27 13:30 38.76873 -9.14266 358 ft 71 kts 22°
2026-04-27 13:31 38.77603 -9.13876 359 ft 152 kts 22°
2026-04-27 13:31 38.78730 -9.13264 674 ft 188 kts 23°
2026-04-27 13:31 38.79962 -9.12597 1590 ft 192 kts 22°
2026-04-27 13:31 38.81198 -9.11938 2575 ft 197 kts 22°
2026-04-27 13:32 38.82448 -9.11060 2929 ft 216 kts 30°
2026-04-27 13:32 38.83810 -9.10013 3259 ft 240 kts 31°
2026-04-27 13:32 38.85303 -9.08852 3678 ft 260 kts 31°
2026-04-27 13:32 38.86873 -9.07629 4426 ft 266 kts 31°
2026-04-27 13:33 38.88464 -9.06386 5243 ft 270 kts 32°
2026-04-27 13:33 38.89840 -9.04742 6010 ft 274 kts 57°
2026-04-27 13:33 38.90718 -9.02554 6814 ft 277 kts 64°
2026-04-27 13:33 38.91551 -9.00307 7606 ft 280 kts 64°
2026-04-27 13:34 38.92389 -8.98037 8380 ft 283 kts 64°
2026-04-27 13:34 38.93238 -8.95740 9136 ft 286 kts 64°
2026-04-27 13:34 38.94102 -8.93416 9877 ft 290 kts 64°
2026-04-27 13:34 38.94985 -8.91043 10378 ft 304 kts 64°
2026-04-27 13:35 38.95936 -8.88496 10573 ft 327 kts 64°
2026-04-27 13:35 38.96938 -8.85809 11029 ft 338 kts 64°
2026-04-27 13:35 38.97948 -8.83097 11684 ft 343 kts 64°
2026-04-27 13:35 38.98997 -8.80278 12394 ft 347 kts 64°
2026-04-27 13:36 39.00041 -8.77467 13083 ft 350 kts 64°
2026-04-27 13:36 39.01094 -8.74631 13758 ft 354 kts 64°
2026-04-27 13:36 39.02143 -8.71802 14400 ft 357 kts 64°
2026-04-27 13:36 39.03216 -8.68903 15037 ft 361 kts 64°
2026-04-27 13:37 39.04296 -8.65976 15662 ft 364 kts 64°
2026-04-27 13:37 39.05384 -8.63018 16277 ft 367 kts 64°
2026-04-27 13:37 39.06483 -8.60035 16867 ft 371 kts 64°
2026-04-27 13:37 39.07593 -8.57029 17462 ft 374 kts 64°
2026-04-27 13:38 39.08716 -8.53992 18032 ft 377 kts 64°
2026-04-27 13:38 39.09845 -8.50931 18587 ft 381 kts 64°
2026-04-27 13:38 39.10984 -8.47838 19140 ft 384 kts 64°
2026-04-27 13:38 39.12134 -8.44718 19672 ft 386 kts 64°
2026-04-27 13:39 39.13288 -8.41581 20187 ft 390 kts 64°
2026-04-27 13:39 39.14452 -8.38408 20682 ft 393 kts 64°
2026-04-27 13:39 39.15620 -8.35213 21153 ft 396 kts 65°
2026-04-27 13:39 39.16797 -8.31986 21639 ft 399 kts 65°
2026-04-27 13:40 39.17980 -8.28739 22104 ft 401 kts 65°
2026-04-27 13:40 39.19171 -8.25473 22562 ft 404 kts 65°
2026-04-27 13:40 39.20373 -8.22181 23003 ft 407 kts 65°
2026-04-27 13:40 39.21580 -8.18872 23436 ft 410 kts 65°
2026-04-27 13:41 39.22798 -8.15533 23854 ft 412 kts 65°
2026-04-27 13:41 39.24021 -8.12172 24270 ft 415 kts 65°
2026-04-27 13:41 39.25249 -8.08789 24671 ft 418 kts 65°
2026-04-27 13:41 39.26481 -8.05388 25067 ft 420 kts 65°
2026-04-27 13:42 39.27720 -8.01959 25458 ft 422 kts 65°
2026-04-27 13:42 39.28890 -7.98462 25842 ft 425 kts 68°
2026-04-27 13:42 39.29961 -7.94898 26215 ft 427 kts 70°
2026-04-27 13:42 39.30971 -7.91279 26578 ft 430 kts 70°
2026-04-27 13:43 39.31964 -7.87631 26928 ft 432 kts 70°
2026-04-27 13:43 39.32970 -7.83962 27270 ft 435 kts 70°
2026-04-27 13:43 39.33998 -7.80279 27606 ft 437 kts 70°
2026-04-27 13:43 39.35050 -7.76578 27936 ft 439 kts 70°
2026-04-27 13:44 39.36113 -7.72870 28255 ft 441 kts 69°
2026-04-27 13:44 39.37186 -7.69138 28569 ft 444 kts 69°
2026-04-27 13:44 39.38264 -7.65395 28870 ft 446 kts 69°
2026-04-27 13:44 39.39409 -7.61653 29163 ft 448 kts 67°
2026-04-27 13:45 39.40646 -7.57949 29445 ft 450 kts 66°
2026-04-27 13:45 39.41944 -7.54255 29720 ft 452 kts 65°
2026-04-27 13:45 39.43266 -7.50550 29984 ft 454 kts 65°
2026-04-27 13:45 39.44583 -7.46832 30238 ft 456 kts 65°
2026-04-27 13:46 39.45888 -7.43084 30500 ft 458 kts 66°
2026-04-27 13:46 39.47180 -7.39304 30771 ft 460 kts 66°
2026-04-27 13:46 39.48462 -7.35503 31045 ft 461 kts 66°
2026-04-27 13:46 39.49737 -7.31700 31430 ft 460 kts 66°
2026-04-27 13:47 39.51009 -7.27896 31805 ft 459 kts 66°
2026-04-27 13:47 39.52280 -7.24104 31973 ft 458 kts 66°
2026-04-27 13:47 39.53533 -7.20367 32011 ft 445 kts 66°
2026-04-27 13:47 39.54759 -7.16712 32008 ft 440 kts 66°
2026-04-27 13:48 39.57194 -7.09467 32009 ft 437 kts 66°
2026-04-27 13:48 39.59616 -7.02247 32009 ft 437 kts 66°
2026-04-27 13:49 39.62023 -6.95022 32009 ft 436 kts 66°
2026-04-27 13:49 39.64432 -6.87796 32008 ft 436 kts 66°
2026-04-27 13:50 39.66838 -6.80564 32004 ft 436 kts 66°
2026-04-27 13:50 39.69232 -6.73330 32000 ft 436 kts 66°
2026-04-27 13:51 39.71618 -6.66085 31998 ft 436 kts 67°
2026-04-27 13:51 39.73997 -6.58839 31998 ft 436 kts 66°
2026-04-27 13:52 39.76384 -6.51593 31999 ft 436 kts 66°
2026-04-27 13:52 39.78772 -6.44340 31998 ft 436 kts 66°
2026-04-27 13:53 39.80480 -6.36807 31987 ft 436 kts 83°
2026-04-27 13:53 39.80827 -6.32894 31992 ft 436 kts 83°
2026-04-27 13:54 39.81516 -6.25050 31996 ft 437 kts 83°
2026-04-27 13:54 39.82212 -6.17201 31998 ft 437 kts 83°
2026-04-27 13:55 39.82902 -6.09356 31999 ft 437 kts 83°
2026-04-27 13:55 39.83585 -6.01511 32000 ft 436 kts 83°
2026-04-27 13:56 39.84264 -5.93672 32002 ft 436 kts 83°
2026-04-27 13:56 39.84939 -5.85832 32001 ft 436 kts 83°
2026-04-27 13:57 39.85606 -5.77988 32002 ft 436 kts 83°
2026-04-27 13:57 39.86272 -5.70149 32002 ft 436 kts 84°